Dewpoint
56 58 58 60 61 61 60 59 59 58 58 58 58 58 57 56 51 39 32 31 38 42 40 27 18 21 21 23 28 27 19 11 12 12 11 19 18 23 26 24 24 24 23 24 24
54 54 54 56 59 61 61 61 60 59 59 58 57 57 57 55 44 33 38 39 39 41 27 22 16 18 17 21 25 22 12 9 16 12 11 16 18 20 20 22 23 22 23 25 24
53 53 53 54 55 57 58 61 61 60 59 58 57 57 57 50 35 24 36 34 35 38 29 26 22 17 15 21 23 22 14 12 14 14 16 14 16 22 20 16 21 21 22 23 22
52 52 52 52 53 54 55 57 59 59 60 59 58 57 53 40 33 13 30 31 33 32 22 19 18 16 16 17 21 18 20 18 17 18 19 17 18 19 22 18 21 23 23 22 21
51 51 51 51 52 52 53 54 56 59 60 59 58 54 39 40 40 16 28 18 16 16 17 17 17 16 12 14 14 16 17 17 17 18 19 20 18 18 19 22 24 24 23 21 21
50 50 50 50 52 53 53 53 54 55 58 59 58 48 36 38 26 13 16 15 14 16 23 22 20 20 20 20 18 20 21 21 21 20 19 19 20 21 22 25 24 24 22 21 20
50 50 50 49 51 52 52 53 53 54 55 57 54 44 37 41 20 12 15 14 16 18 20 25 26 23 22 24 26 25 27 28 30 29 28 23 24 23 24 26 24 23 21 21 20
50 50 50 50 51 52 52 53 52 53 55 57 49 38 40 35 17 11 16 21 22 23 24 29 29 28 24 26 31 29 27 27 29 23 24 23 22 23 24 24 24 23 22 22 21
50 50 50 50 51 53 54 53 53 53 56 52 41 34 35 26 11 13 19 19 20 24 27 26 24 26 26 29 27 28 24 26 27 21 23 18 16 19 27 25 24 25 25 25 24
50 51 50 50 51 52 53 54 55 54 48 42 37 34 34 28 18 18 20 20 23 28 29 27 23 25 22 26 17 16 23 25 23 19 22 20 19 20 24 26 25 26 26 25 20
50 51 49 50 51 52 51 48 42 40 37 36 34 33 33 20 17 18 19 18 22 28 28 28 25 22 21 23 24 24 24 21 18 17 14 10 11 11 17 23 26 28 27 17 13
51 50 49 50 51 52 45 38 38 39 36 40 40 37 34 13 21 18 16 14 20 20 26 22 19 21 23 21 21 22 21 18 13 8 10 9 8 12 18 22 23 24 19 12 12
51 51 49 50 51 44 41 40 45 46 37 39 35 30 12 12 13 14 15 13 13 12 16 14 14 18 18 16 17 16 14 10 5 8 10 12 16 19 24 18 18 16 14 15 12
52 51 49 50 48 47 42 45 46 47 30 26 31 15 8 9 10 19 16 15 13 13 12 11 10 9 11 8 7 5 9 9 9 7 7 13 12 15 22 19 14 13 12 10 10
52 51 49 49 45 44 44 45 47 44 1 23 16 15 15 19 30 30 20 16 21 20 18 22 9 6 6 6 6 5 11 9 10 10 15 16 13 14 23 17 17 15 6 8 11
51 51 49 45 44 45 45 46 44 26 5 22 24 20 30 30 33 30 21 18 18 18 18 18 15 11 9 10 8 13 15 17 19 17 13 13 13 13 18 19 7 5 3 8 13
49 50 48 45 41 44 45 44 27 19 26 31 32 30 27 27 28 30 27 26 21 21 21 23 15 11 11 8 13 15 11 9 10 11 13 18 16 15 17 13 8 3 6 9 14
49 49 47 45 44 44 43 30 20 14 26 32 28 27 23 24 27 26 22 20 24 23 22 22 20 11 13 14 19 9 12 10 10 4 -0 17 13 6 14 11 8 8 8 11 16
46 44 44 43 44 44 39 24 18 20 31 28 25 24 28 25 25 28 26 22 23 25 24 23 22 12 11 10 6 9 8 14 8 8 4 4 8 10 10 8 4 8 5 12 16
42 40 40 43 44 43 35 24 25 31 33 28 22 28 24 24 23 26 25 24 22 29 31 26 21 17 13 11 10 9 13 14 11 7 -6 -6 -1 3 1 -1 7 7 6 12 16
42 36 39 43 43 39 29 25 30 35 32 29 26 26 23 25 27 28 27 27 31 29 30 27 23 19 14 12 11 7 8 7 12 14 -8 -11 -9 9 -3 5 9 8 8 13 17
39 31 39 42 35 33 30 27 32 34 33 33 31 30 29 30 25 26 26 30 32 29 25 23 21 18 19 16 15 12 8 9 17 7 8 4 -2 15 8 11 11 7 11 15 17
36 33 40 39 28 28 28 29 30 28 27 28 30 32 33 29 24 27 31 31 32 30 26 24 19 17 16 16 14 11 9 23 20 15 12 3 -4 14 13 10 5 11 14 16 18
36 30 35 36 31 27 27 27 26 34 33 33 33 33 31 28 30 26 28 29 32 31 33 30 21 20 18 21 21 14 12 19 22 15 12 4 -2 2 6 0 8 13 14 16 19
36 31 30 26 30 28 28 26 28 27 34 32 30 30 29 25 26 27 28 29 30 30 30 27 19 20 20 23 24 23 21 18 19 16 0 4 3 5 8 3 10 10 14 17 19
32 31 32 27 30 28 28 25 22 29 30 29 28 31 30 25 25 24 27 27 26 27 28 26 19 22 19 21 23 21 24 25 21 19 13 11 14 10 10 9 12 14 16 17 18
35 37 34 30 28 26 27 26 23 28 32 31 30 28 27 28 30 30 30 29 28 25 24 23 21 19 15 22 21 18 20 22 22 20 20 18 16 10 5 5 14 16 17 17 18
Wind_Speed
18 21 22 22 18 13 12 12 12 12 12 13 15 17 19 22 16 2 1 2 0 6 5 4 3 2 2 2 3 3 2 8 5 4 3 1 1 1 1 3 1 1 1 2 15
18 18 20 22 23 19 14 13 12 11 11 12 15 17 18 20 6 4 1 0 3 4 4 6 2 2 1 2 2 4 5 7 4 2 3 2 1 2 2 3 5 3 0 5 18
19 19 20 21 21 20 20 17 14 11 9 9 12 16 19 11 5 1 1 2 2 4 3 1 1 1 2 2 5 5 7 5 5 6 4 3 4 5 4 13 9 10 11 14 14
20 20 20 21 21 22 19 18 17 16 10 8 7 11 17 3 6 0 1 3 2 3 1 1 1 1 2 4 3 4 8 8 4 2 2 5 2 4 12 13 4 10 18 18 19
22 23 22 23 23 21 21 20 17 15 13 10 4 6 5 5 7 1 2 2 2 1 1 0 1 2 4 3 3 8 7 5 6 7 7 6 13 11 16 13 6 6 18 20 17
22 24 24 24 24 24 21 18 18 15 12 8 1 2 2 10 1 2 1 2 3 2 2 2 2 2 3 3 4 2 8 12 10 13 7 10 13 6 7 6 8 12 18 17 16
21 22 24 24 26 24 23 19 15 14 13 9 5 3 1 15 1 2 2 1 1 2 1 2 2 0 0 4 3 4 10 12 9 4 4 1 11 13 10 4 10 12 13 12 11
22 23 23 24 25 26 23 20 17 11 10 9 5 3 6 3 2 3 1 1 2 3 3 4 2 2 2 3 3 4 1 6 1 2 1 2 12 7 2 8 11 13 12 11 9
23 24 24 23 23 27 27 23 17 9 7 9 2 2 6 3 3 2 2 2 1 2 3 5 3 2 2 1 3 2 6 6 9 1 0 5 11 6 2 7 11 12 13 10 9
23 24 25 24 23 24 27 24 5 2 6 4 3 0 5 2 2 2 1 2 3 4 2 2 3 1 2 4 5 3 6 6 9 3 3 10 25 25 11 8 14 12 11 9 6
20 22 24 26 25 22 16 6 3 1 2 6 3 3 5 0 3 2 3 3 3 3 3 1 3 11 9 11 3 4 6 13 11 9 9 18 21 27 14 11 16 15 9 5 4
19 21 23 25 26 16 4 3 3 2 8 6 9 8 5 1 1 3 2 2 2 4 2 2 12 11 4 4 6 6 10 16 11 3 3 15 25 25 8 5 7 13 9 1 8
16 18 21 26 24 4 4 2 6 4 4 5 4 3 2 2 2 2 4 3 4 5 8 10 2 2 4 5 5 5 8 9 11 9 8 11 12 3 2 2 6 8 6 5 11
13 15 16 24 3 5 1 4 5 1 4 4 4 3 2 3 1 2 2 2 2 3 2 7 4 3 2 4 6 9 2 4 6 9 5 6 12 5 3 2 4 5 5 12 16
15 12 12 5 9 4 4 7 4 1 6 4 3 1 2 2 1 1 1 2 4 3 1 5 2 3 4 4 7 4 1 3 3 5 6 2 4 7 1 6 7 1 10 15 18
19 10 9 3 3 2 5 5 1 1 9 4 4 4 2 1 1 2 1 1 0 2 2 11 3 3 3 1 0 2 1 3 3 2 4 3 5 5 3 2 2 5 13 16 20
19 12 4 2 4 2 3 1 2 7 2 5 4 4 2 2 1 2 1 1 1 5 4 6 3 1 1 2 0 2 3 6 3 2 4 3 5 12 4 3 2 7 13 18 19
18 8 3 6 1 3 0 4 8 5 4 1 3 1 2 1 1 1 2 2 3 2 1 3 4 3 1 2 1 1 4 3 5 4 5 3 8 3 2 5 4 3 11 16 18
17 3 3 4 8 3 4 11 8 7 2 4 3 1 1 3 1 2 1 0 3 3 2 2 5 1 1 1 2 3 3 3 2 1 4 4 6 4 2 1 3 12 16 21 22
12 4 6 10 9 5 6 8 6 4 1 2 4 2 3 1 1 1 1 0 3 2 1 2 7 0 1 1 2 2 5 1 1 4 5 5 6 4 2 3 11 15 18 22 21
6 6 2 6 5 4 7 5 5 4 2 2 4 5 4 0 1 2 1 2 3 3 1 3 3 2 0 6 5 4 3 2 1 3 3 6 4 3 5 1 11 12 15 19 21
5 6 5 8 7 5 7 2 2 4 3 1 2 2 2 3 1 1 2 1 2 2 2 3 2 7 6 1 1 1 3 8 4 3 3 2 8 2 2 1 4 11 15 19 17
3 6 2 2 9 9 4 4 4 5 4 4 3 2 2 4 2 2 2 3 4 2 3 5 2 7 2 3 1 4 5 5 6 2 8 3 5 2 3 5 3 10 16 18 18
2 5 2 1 2 10 8 7 8 2 2 3 3 3 3 3 3 1 1 2 5 3 4 6 3 8 9 2 2 5 5 8 8 5 4 13 13 3 9 8 9 11 14 18 17
4 4 5 7 9 6 11 9 11 5 1 2 2 3 4 4 2 4 1 1 3 1 1 3 5 6 14 18 17 17 11 15 18 14 10 4 10 14 11 4 7 9 14 18 18
5 5 1 4 9 15 10 7 11 5 7 4 3 7 5 2 1 2 1 3 2 1 3 1 4 4 11 10 9 14 16 19 22 21 18 19 32 4 3 0 6 9 13 17 18
4 5 8 5 8 13 9 8 11 10 1 3 7 5 4 1 1 1 3 4 5 2 5 4 4 3 6 4 12 9 10 17 9 9 12 17 7 5 2 2 5 10 11 14 17
Wind_Direction
346 340 338 342 305 279 283 292 303 313 323 332 338 339 336 333 329 356 222 143 356 343 357 338 64 78 79 110 104 120 213 243 246 211 259 0 276 12 92 121 198 310 191 291 155
348 345 336 335 342 320 280 285 290 298 312 328 333 336 333 335 329 353 241 211 2 21 45 41 56 44 148 161 151 170 205 229 226 232 262 290 236 243 233 216 225 247 13 133 148
350 346 340 332 334 332 342 310 283 281 290 313 327 333 329 338 337 33 191 357 11 85 86 64 55 119 209 166 193 183 229 222 260 237 232 245 256 194 212 261 222 228 193 160 164
351 346 343 335 330 328 329 324 327 294 279 288 312 332 327 347 311 59 213 345 16 122 75 77 90 178 241 227 182 240 246 242 278 304 246 243 209 227 215 243 199 225 182 170 180
350 344 342 337 329 327 320 320 323 328 289 282 315 351 11 337 263 220 32 349 75 94 55 206 205 188 243 256 286 238 272 282 273 294 262 262 251 251 251 242 217 174 172 183 186
348 345 343 340 330 322 313 311 310 318 331 302 101 49 116 289 172 148 33 75 59 73 60 43 157 170 259 250 234 298 285 282 279 268 256 253 266 212 262 231 189 178 184 187 191
344 343 342 342 334 333 326 311 301 305 318 303 135 121 231 259 348 301 0 109 101 110 129 120 115 37 231 283 330 304 304 313 265 267 243 233 272 239 246 176 198 188 184 189 194
339 338 341 340 335 330 326 315 302 297 301 297 144 123 247 259 301 274 180 105 85 92 112 129 109 140 199 315 335 309 344 313 267 304 296 157 275 277 298 206 220 204 196 194 187
338 335 335 336 335 331 327 319 298 277 272 146 128 150 263 321 245 244 166 177 84 86 95 89 78 118 86 123 313 350 269 261 306 26 231 210 280 263 197 201 229 215 204 198 174
333 333 331 333 335 333 324 318 274 230 83 109 75 313 257 208 168 120 92 91 91 100 85 63 61 146 95 152 254 259 268 260 260 293 260 260 265 274 246 223 236 220 202 179 201
330 329 330 330 331 333 336 339 331 302 211 199 217 257 274 126 143 112 108 88 61 55 244 16 227 229 228 212 238 270 259 273 267 274 285 261 275 278 277 242 247 231 197 195 286
327 326 327 328 327 330 16 14 61 289 306 257 251 264 270 263 229 126 118 98 137 253 183 290 259 257 222 214 234 246 274 279 286 278 264 288 286 283 283 267 266 230 166 87 339
317 320 327 328 322 29 49 38 335 347 287 290 217 205 197 168 204 150 140 130 216 236 224 235 270 39 196 211 223 240 250 271 284 325 275 302 287 324 8 81 89 107 101 31 350
301 314 328 332 295 337 345 345 342 312 322 244 215 206 164 151 93 85 95 177 226 265 282 251 281 284 192 227 191 278 224 273 297 329 290 17 293 308 267 241 208 175 23 354 345
295 302 323 354 298 302 337 341 316 154 304 152 187 161 125 142 158 9 77 115 236 244 129 267 267 247 252 243 176 236 67 301 285 272 325 254 221 271 286 259 242 224 347 342 336
299 286 324 343 299 268 349 323 118 7 248 202 162 175 132 111 142 129 165 89 111 292 261 258 293 268 212 100 219 105 46 41 64 75 276 236 197 277 225 213 104 2 342 334 323
293 274 298 160 266 348 344 227 243 218 13 194 189 165 158 164 148 171 154 26 351 340 344 315 238 152 186 181 51 109 47 308 311 295 254 179 212 261 253 219 108 347 329 324 318
290 284 238 214 218 4 145 164 220 245 213 63 82 93 349 47 123 329 161 196 69 134 294 322 292 190 196 204 166 163 146 228 276 291 304 196 243 273 154 108 146 319 316 309 329
297 223 213 231 169 123 204 206 231 212 196 149 72 164 187 193 123 35 71 305 79 56 215 266 271 152 47 153 131 165 184 172 306 239 286 242 271 277 177 357 333 338 341 335 332
280 254 233 161 155 127 215 226 241 251 273 141 178 153 176 261 318 25 9 33 117 82 137 200 284 245 114 106 41 192 151 103 72 283 276 276 275 250 175 13 341 346 337 330 327
243 251 176 155 142 155 229 233 269 267 189 104 185 172 212 338 29 294 145 139 171 164 154 153 209 279 293 206 192 151 193 160 173 197 258 305 281 230 140 329 334 334 323 322 326
235 230 183 159 181 165 213 242 220 252 72 137 161 112 143 130 228 290 304 60 120 133 160 184 175 262 236 115 343 250 223 172 195 210 218 247 277 55 124 302 333 323 323 326 326
244 226 211 178 199 193 136 201 241 239 204 190 167 104 122 153 213 238 19 136 130 166 161 169 233 307 288 67 41 238 201 147 109 123 229 228 260 131 50 5 13 334 331 332 331
277 219 168 164 304 192 172 196 205 53 111 104 122 106 136 176 200 199 258 175 180 212 202 180 209 232 253 274 164 239 208 181 181 207 221 232 274 320 348 3 359 343 336 335 337
284 241 184 191 223 186 183 176 171 172 131 138 150 196 168 168 193 224 130 324 182 45 7 158 260 235 263 268 259 249 224 196 208 220 228 273 269 304 339 16 342 320 335 350 347
219 252 179 200 165 177 187 201 189 164 163 201 173 172 144 166 191 252 285 211 261 37 193 206 272 287 289 254 250 262 244 224 221 237 254 270 283 206 111 201 344 351 351 348 348
226 254 341 183 154 171 193 176 175 143 232 164 158 139 188 219 74 217 229 238 243 237 208 216 238 313 275 327 314 288 252 216 211 211 217 242 254 192 138 82 2 348 351 345 341